Time,TemperatureF,DewpointF,PressureIn,WindDirection,WindDirectionDegrees,WindSpeedMPH,WindSpeedGustMPH,Humidity,HourlyPrecipIn,Conditions,Clouds,dailyrainin,SoftwareType,DateUTC
2013-08-25 00:14:00,68.7,68.4,30.08,East,90,0.0,-999.0,99,-99.99,,,0.00,Acu-Link.com,2013-08-25 04:14:00,
2013-08-25 00:29:00,68.7,68.4,30.08,SSE,157,0.0,-999.0,99,-99.99,,,0.00,Acu-Link.com,2013-08-25 04:29:00,
2013-08-25 00:44:00,68.7,68.4,30.09,SSE,157,0.0,-999.0,99,-99.99,,,0.00,Acu-Link.com,2013-08-25 04:44:00,
2013-08-25 00:59:00,68.2,67.9,30.09,East,90,0.0,-999.0,99,-99.99,,,0.00,Acu-Link.com,2013-08-25 04:59:00,
2013-08-25 01:14:00,67.8,67.5,30.09,SE,135,0.0,-999.0,99,-99.99,,,0.00,Acu-Link.com,2013-08-25 05:14:00,
2013-08-25 01:29:00,67.3,67.0,30.09,SSE,157,0.0,-999.0,99,-99.99,,,0.00,Acu-Link.com,2013-08-25 05:29:00,
2013-08-25 01:44:00,66.7,66.4,30.08,ENE,67,0.0,-999.0,99,-99.99,,,0.00,Acu-Link.com,2013-08-25 05:44:00,
2013-08-25 01:59:00,66.4,66.1,30.09,SE,135,0.0,-999.0,99,-99.99,,,0.00,Acu-Link.com,2013-08-25 05:59:00,
2013-08-25 02:14:00,66.0,65.7,30.09,ESE,112,0.0,-999.0,99,-99.99,,,0.00,Acu-Link.com,2013-08-25 06:14:00,
2013-08-25 02:30:00,65.7,65.4,30.09,SSW,202,0.0,-999.0,99,-99.99,,,0.00,Acu-Link.com,2013-08-25 06:30:00,
2013-08-25 02:45:00,65.5,65.2,30.09,SSE,157,0.0,-999.0,99,-99.99,,,0.00,Acu-Link.com,2013-08-25 06:45:00,
2013-08-25 03:00:00,64.9,64.6,30.10,ESE,112,0.0,-999.0,99,-99.99,,,0.00,Acu-Link.com,2013-08-25 07:00:00,
2013-08-25 03:15:00,64.8,64.5,30.10,SSE,157,0.0,-999.0,99,-99.99,,,0.00,Acu-Link.com,2013-08-25 07:15:00,
2013-08-25 03:30:00,64.2,63.9,30.10,East,90,0.0,-999.0,99,-99.99,,,0.00,Acu-Link.com,2013-08-25 07:30:00,
2013-08-25 03:45:00,64.2,63.9,30.10,ESE,112,0.0,-999.0,99,-99.99,,,0.00,Acu-Link.com,2013-08-25 07:45:00,
2013-08-25 04:01:00,63.7,63.4,30.11,SSE,157,0.0,-999.0,99,-99.99,,,0.00,Acu-Link.com,2013-08-25 08:01:00,
2013-08-25 04:16:00,63.5,63.2,30.11,ESE,112,0.0,-999.0,99,-99.99,,,0.00,Acu-Link.com,2013-08-25 08:16:00,
2013-08-25 04:31:00,63.9,63.6,30.11,ESE,112,0.0,-999.0,99,-99.99,,,0.00,Acu-Link.com,2013-08-25 08:31:00,
2013-08-25 04:46:00,64.0,63.7,30.11,SSE,157,0.0,-999.0,99,-99.99,,,0.00,Acu-Link.com,2013-08-25 08:46:00,
2013-08-25 05:01:00,64.2,63.9,30.11,South,180,0.0,-999.0,99,-99.99,,,0.00,Acu-Link.com,2013-08-25 09:01:00,
2013-08-25 05:16:00,63.7,63.4,30.11,South,180,0.0,-999.0,99,-99.99,,,0.00,Acu-Link.com,2013-08-25 09:16:00,
2013-08-25 05:31:00,63.1,62.8,30.12,SSE,157,0.0,-999.0,99,-99.99,,,0.00,Acu-Link.com,2013-08-25 09:31:00,
2013-08-25 05:47:00,62.8,62.5,30.13,SSE,157,0.0,-999.0,99,-99.99,,,0.00,Acu-Link.com,2013-08-25 09:47:00,
2013-08-25 06:02:00,62.6,62.3,30.13,ESE,112,0.0,-999.0,99,-99.99,,,0.00,Acu-Link.com,2013-08-25 10:02:00,
2013-08-25 06:17:00,62.4,62.1,30.13,SSE,157,0.0,-999.0,99,-99.99,,,0.00,Acu-Link.com,2013-08-25 10:17:00,
2013-08-25 06:32:00,61.9,61.6,30.14,SSE,157,0.0,-999.0,99,-99.99,,,0.00,Acu-Link.com,2013-08-25 10:32:00,
2013-08-25 06:47:00,61.3,61.0,30.14,SE,135,0.0,-999.0,99,-99.99,,,0.00,Acu-Link.com,2013-08-25 10:47:00,
2013-08-25 07:02:00,61.2,60.9,30.15,SSE,157,0.0,-999.0,99,-99.99,,,0.00,Acu-Link.com,2013-08-25 11:02:00,
2013-08-25 07:17:00,61.3,61.0,30.16,ESE,112,0.0,-999.0,99,-99.99,,,0.00,Acu-Link.com,2013-08-25 11:17:00,
2013-08-25 07:32:00,61.3,61.0,30.17,East,90,0.0,-999.0,99,-99.99,,,0.00,Acu-Link.com,2013-08-25 11:32:00,
2013-08-25 07:47:00,61.7,61.4,30.17,South,180,0.0,-999.0,99,-99.99,,,0.00,Acu-Link.com,2013-08-25 11:47:00,
2013-08-25 08:03:00,62.4,62.1,30.18,ESE,112,0.0,-999.0,99,-99.99,,,0.00,Acu-Link.com,2013-08-25 12:03:00,
2013-08-25 08:18:00,64.0,63.7,30.18,East,90,0.0,-999.0,99,-99.99,,,0.00,Acu-Link.com,2013-08-25 12:18:00,
2013-08-25 08:33:00,68.2,67.9,30.19,ESE,112,0.0,-999.0,99,-99.99,,,0.00,Acu-Link.com,2013-08-25 12:33:00,
2013-08-25 08:48:00,72.9,69.1,30.19,South,180,0.0,-999.0,88,-99.99,,,0.00,Acu-Link.com,2013-08-25 12:48:00,
2013-08-25 09:03:00,76.8,70.5,30.19,ESE,112,0.0,-999.0,81,-99.99,,,0.00,Acu-Link.com,2013-08-25 13:03:00,
2013-08-25 09:18:00,79.5,70.1,30.20,NNW,337,0.0,-999.0,73,-99.99,,,0.00,Acu-Link.com,2013-08-25 13:18:00,
2013-08-25 09:33:00,85.1,68.6,30.20,NNW,337,0.0,-999.0,58,-99.99,,,0.00,Acu-Link.com,2013-08-25 13:33:00,
2013-08-25 09:48:00,85.6,68.1,30.21,NW,315,0.0,-999.0,56,-99.99,,,0.00,Acu-Link.com,2013-08-25 13:48:00,
2013-08-25 10:03:00,88.9,66.0,30.21,WNW,292,0.0,-999.0,47,-99.99,,,0.00,Acu-Link.com,2013-08-25 14:03:00,
2013-08-25 10:19:00,86.9,67.1,30.20,SE,135,2.2,-999.0,52,-99.99,,,0.00,Acu-Link.com,2013-08-25 14:19:00,
2013-08-25 10:34:00,78.3,63.3,30.21,ESE,112,0.0,-999.0,60,-99.99,,,0.00,Acu-Link.com,2013-08-25 14:34:00,
2013-08-25 10:49:00,79.2,63.6,30.21,East,90,2.7,-999.0,59,-99.99,,,0.00,Acu-Link.com,2013-08-25 14:49:00,
2013-08-25 11:04:00,78.6,62.6,30.21,SSE,157,2.2,-999.0,58,-99.99,,,0.00,Acu-Link.com,2013-08-25 15:04:00,
2013-08-25 11:19:00,79.2,62.6,30.21,NNE,22,1.7,-999.0,57,-99.99,,,0.00,Acu-Link.com,2013-08-25 15:19:00,
2013-08-25 11:34:00,80.6,63.9,30.20,ESE,112,0.0,-999.0,57,-99.99,,,0.00,Acu-Link.com,2013-08-25 15:34:00,
2013-08-25 11:50:00,80.2,63.6,30.20,NNW,337,1.7,-999.0,57,-99.99,,,0.00,Acu-Link.com,2013-08-25 15:50:00,
2013-08-25 12:05:00,81.0,63.3,30.20,South,180,1.7,-999.0,55,-99.99,,,0.00,Acu-Link.com,2013-08-25 16:05:00,
2013-08-25 12:20:00,81.3,65.1,30.20,North,0,1.7,-999.0,58,-99.99,,,0.00,Acu-Link.com,2013-08-25 16:20:00,
2013-08-25 12:35:00,81.7,65.0,30.19,West,270,1.7,-999.0,57,-99.99,,,0.00,Acu-Link.com,2013-08-25 16:35:00,
2013-08-25 12:50:00,83.1,64.7,30.19,East,90,1.7,-999.0,54,-99.99,,,0.00,Acu-Link.com,2013-08-25 16:50:00,
2013-08-25 13:05:00,81.3,63.0,30.18,West,270,1.1,-999.0,54,-99.99,,,0.00,Acu-Link.com,2013-08-25 17:05:00,
2013-08-25 13:20:00,82.8,63.9,30.17,SSE,157,2.7,-999.0,53,-99.99,,,0.00,Acu-Link.com,2013-08-25 17:20:00,
2013-08-25 13:35:00,83.3,65.4,30.15,West,270,1.7,-999.0,55,-99.99,,,0.00,Acu-Link.com,2013-08-25 17:35:00,
2013-08-25 13:50:00,82.2,64.9,30.15,WNW,292,3.2,-999.0,56,-99.99,,,0.00,Acu-Link.com,2013-08-25 17:50:00,
2013-08-25 14:05:00,84.7,64.5,30.15,WSW,247,3.7,-999.0,51,-99.99,,,0.00,Acu-Link.com,2013-08-25 18:05:00,
2013-08-25 14:21:00,84.0,67.1,30.14,West,270,2.7,-999.0,57,-99.99,,,0.00,Acu-Link.com,2013-08-25 18:21:00,
2013-08-25 14:36:00,84.4,63.7,30.14,ESE,112,2.7,-999.0,50,-99.99,,,0.00,Acu-Link.com,2013-08-25 18:36:00,
2013-08-25 14:51:00,84.0,65.0,30.13,NW,315,2.2,-999.0,53,-99.99,,,0.00,Acu-Link.com,2013-08-25 18:51:00,
2013-08-25 15:06:00,83.7,64.7,30.11,NE,45,3.2,-999.0,53,-99.99,,,0.00,Acu-Link.com,2013-08-25 19:06:00,
2013-08-25 15:21:00,85.3,66.7,30.11,NW,315,3.7,-999.0,54,-99.99,,,0.00,Acu-Link.com,2013-08-25 19:21:00,
2013-08-25 15:36:00,84.4,63.7,30.11,East,90,1.7,-999.0,50,-99.99,,,0.00,Acu-Link.com,2013-08-25 19:36:00,
2013-08-25 15:51:00,80.6,69.0,30.11,NE,45,0.0,-999.0,68,-99.99,,,0.00,Acu-Link.com,2013-08-25 19:51:00,
2013-08-25 16:06:00,84.9,66.4,30.09,West,270,1.7,-999.0,54,-99.99,,,0.00,Acu-Link.com,2013-08-25 20:06:00,
2013-08-25 16:21:00,84.9,64.2,30.09,West,270,2.2,-999.0,50,-99.99,,,0.00,Acu-Link.com,2013-08-25 20:21:00,
2013-08-25 16:37:00,83.7,63.6,30.10,ENE,67,1.1,-999.0,51,-99.99,,,0.00,Acu-Link.com,2013-08-25 20:37:00,
2013-08-25 16:52:00,84.0,65.0,30.09,ENE,67,3.2,-999.0,53,-99.99,,,0.00,Acu-Link.com,2013-08-25 20:52:00,
2013-08-25 17:07:00,83.8,64.3,30.09,NE,45,0.0,-999.0,52,-99.99,,,0.00,Acu-Link.com,2013-08-25 21:07:00,
2013-08-25 17:22:00,84.9,69.4,30.09,West,270,2.2,-999.0,60,-99.99,,,0.00,Acu-Link.com,2013-08-25 21:22:00,
2013-08-25 17:37:00,81.3,67.5,30.08,NE,45,2.7,-999.0,63,-99.99,,,0.00,Acu-Link.com,2013-08-25 21:37:00,
2013-08-25 17:52:00,81.9,67.1,30.09,NW,315,1.1,-999.0,61,-99.99,,,0.00,Acu-Link.com,2013-08-25 21:52:00,
2013-08-25 18:08:00,82.4,66.1,30.08,West,270,1.7,-999.0,58,-99.99,,,0.00,Acu-Link.com,2013-08-25 22:08:00,
2013-08-25 18:23:00,81.9,67.6,30.08,NW,315,2.2,-999.0,62,-99.99,,,0.00,Acu-Link.com,2013-08-25 22:23:00,
2013-08-25 18:38:00,80.6,68.2,30.08,ENE,67,1.7,-999.0,66,-99.99,,,0.00,Acu-Link.com,2013-08-25 22:38:00,
2013-08-25 18:53:00,85.8,69.3,30.09,East,90,0.0,-999.0,58,-99.99,,,0.00,Acu-Link.com,2013-08-25 22:53:00,
2013-08-25 19:08:00,82.0,69.9,30.09,South,180,0.0,-999.0,67,-99.99,,,0.00,Acu-Link.com,2013-08-25 23:08:00,
2013-08-25 19:23:00,79.9,70.5,30.08,South,180,0.0,-999.0,73,-99.99,,,0.00,Acu-Link.com,2013-08-25 23:23:00,
2013-08-25 19:38:00,78.6,70.8,30.09,South,180,0.0,-999.0,77,-99.99,,,0.00,Acu-Link.com,2013-08-25 23:38:00,
2013-08-25 19:53:00,76.3,71.1,30.09,NE,45,0.0,-999.0,84,-99.99,,,0.00,Acu-Link.com,2013-08-25 23:53:00,
2013-08-25 20:08:00,74.1,71.0,30.10,ENE,67,0.0,-999.0,90,-99.99,,,0.00,Acu-Link.com,2013-08-26 00:08:00,
2013-08-25 20:24:00,72.7,70.6,30.10,ESE,112,0.0,-999.0,93,-99.99,,,0.00,Acu-Link.com,2013-08-26 00:24:00,
2013-08-25 20:39:00,71.1,69.9,30.10,ESE,112,0.0,-999.0,96,-99.99,,,0.00,Acu-Link.com,2013-08-26 00:39:00,
2013-08-25 20:54:00,70.5,69.3,30.11,ESE,112,0.0,-999.0,96,-99.99,,,0.00,Acu-Link.com,2013-08-26 00:54:00,
2013-08-25 21:09:00,70.0,69.7,30.11,SSE,157,0.0,-999.0,99,-99.99,,,0.00,Acu-Link.com,2013-08-26 01:09:00,
2013-08-25 21:24:00,69.8,69.5,30.11,SSE,157,0.0,-999.0,99,-99.99,,,0.00,Acu-Link.com,2013-08-26 01:24:00,
2013-08-25 21:39:00,69.3,69.0,30.11,South,180,0.0,-999.0,99,-99.99,,,0.00,Acu-Link.com,2013-08-26 01:39:00,
2013-08-25 21:54:00,68.7,68.4,30.12,SSE,157,0.0,-999.0,99,-99.99,,,0.00,Acu-Link.com,2013-08-26 01:54:00,
2013-08-25 22:10:00,68.7,68.4,30.12,SSE,157,0.0,-999.0,99,-99.99,,,0.00,Acu-Link.com,2013-08-26 02:10:00,
2013-08-25 22:25:00,68.7,68.4,30.12,SSE,157,0.0,-999.0,99,-99.99,,,0.00,Acu-Link.com,2013-08-26 02:25:00,
2013-08-25 22:40:00,68.7,68.4,30.13,ESE,112,0.0,-999.0,99,-99.99,,,0.00,Acu-Link.com,2013-08-26 02:40:00,
2013-08-25 22:55:00,68.5,68.2,30.14,East,90,0.0,-999.0,99,-99.99,,,0.00,Acu-Link.com,2013-08-26 02:55:00,
2013-08-25 23:10:00,68.5,68.2,30.14,East,90,0.0,-999.0,99,-99.99,,,0.00,Acu-Link.com,2013-08-26 03:10:00,
2013-08-25 23:25:00,68.7,68.4,30.14,NE,45,0.0,-999.0,99,-99.99,,,0.00,Acu-Link.com,2013-08-26 03:25:00,
2013-08-25 23:40:00,68.9,68.6,30.15,SE,135,0.0,-999.0,99,-99.99,,,0.00,Acu-Link.com,2013-08-26 03:40:00,
2013-08-25 23:55:00,68.7,68.4,30.15,SE,135,0.0,-999.0,99,-99.99,,,0.00,Acu-Link.com,2013-08-26 03:55:00,